FW6870 Weather Reports


Display with metric or nautical units.
time (UTC)temp
F
wind
direction
speed
MPH
gust
MPH
rain 1hr
in
rain 24hr
in
rain mn
in
humidity
%
barometer
mb
20260902163036 91 19 3.0 7.0 0.00 0.00 0.00 59 1021.2
20260902160034 89 84 1.0 7.0 0.00 0.00 0.00 60 1021.4
20260902150034 87 66 3.0 6.0 0.00 0.00 0.00 68 1021.6
20260902140033 83 55 2.0 4.0 0.00 0.00 0.00 72 1021.5
20260902134534 83 83 2.0 5.0 0.00 0.00 0.00 72 1021.6
20260902133050 81 53 3.0 6.0 0.00 0.00 0.00 74 1021.5
20260902114540 77 63 7.0 12.0 0.00 0.00 0.00 81 1021.2
20260902113050 76 66 7.0 12.0 0.00 0.00 0.00 81 1020.7
20260902110034 76 53 8.0 12.0 0.00 0.00 0.00 82 1020.5
20260902104549 76 52 8.0 12.0 0.00 0.00 0.00 82 1020.4
20260902103036 76 55 8.0 12.0 0.00 0.00 0.00 83 1020.5
20260902100033 77 62 4.0 9.0 0.00 0.00 0.00 83 1020.4
20260902094536 77 60 4.0 7.0 0.00 0.00 0.00 83 1020.2
20260902090036 78 83 5.0 9.0 0.00 0.00 0.00 83 1019.7
20260902084535 77 74 6.0 8.0 0.00 0.00 0.00 83 1019.7
20260902080034 78 78 8.0 13.0 0.00 0.00 0.00 82 1019.6
20260902074535 78 55 8.0 13.0 0.00 0.00 0.00 82 1019.4
20260902064537 80 69 8.0 10.0 0.00 0.00 0.00 79 1019.6
20260902061544 80 67 7.0 9.0 0.00 0.00 0.00 80 1019.8
20260902060033 80 67 7.0 9.0 0.00 0.00 0.00 79 1019.9
20260902051535 82 80 7.0 9.0 0.00 0.00 0.00 75 1020.0
20260902043041 81 60 6.0 10.0 0.00 0.00 0.00 79 1019.8
20260902041535 82 68 5.0 8.0 0.00 0.00 0.00 80 1019.7
20260902031540 82 56 5.0 8.0 0.00 0.00 0.00 77 1019.7
20260902030035 83 65 6.0 9.0 0.00 0.00 0.00 77 1019.9
20260902023036 85 53 4.0 6.0 0.00 0.00 0.00 69 1019.8
20260902021533 86 80 6.0 8.0 0.00 0.00 0.00 66 1019.6
20260902020034 86 88 4.0 7.0 0.00 0.00 0.00 66 1019.6
20260902013034 86 79 6.0 9.0 0.00 0.00 0.00 67 1019.4
20260902011550 87 55 5.0 9.0 0.00 0.00 0.00 67 1019.2
20260902010034 87 49 5.0 7.0 0.00 0.00 0.00 66 1019.1
20260902004536 88 42 4.0 8.0 0.00 0.00 0.00 63 1018.9
20260902001537 90 98 3.0 6.0 0.00 0.00 0.00 53 1019.0
20260902000039 90 98 2.0 4.0 0.00 0.00 0.00 52 1018.9
20260901234533 91 138 2.0 3.0 0.00 0.00 0.00 52 1018.9
20260901231546 91 138 1.0 3.0 0.00 0.00 0.00 51 1018.8
20260901230036 92 132 2.0 4.0 0.00 0.00 0.00 50 1018.9
20260901224533 92 123 2.0 7.0 0.00 0.00 0.00 50 1018.8
20260901223036 92 130 2.0 8.0 0.00 0.00 0.00 50 1018.9
20260901221602 93 148 4.0 8.0 0.00 0.00 0.00 48 1018.8
20260901220042 93 98 3.0 8.0 0.00 0.00 0.00 48 1018.7
20260901214537 93 92 1.0 7.0 0.00 0.00 0.00 47 1018.8
20260901213032 92 120 3.0 9.0 0.00 0.00 0.00 46 1018.7
20260901211536 93 64 4.0 9.0 0.00 0.00 0.00 46 1018.7
20260901210034 93 72 4.0 8.0 0.00 0.00 0.00 45 1018.7
20260901204537 93 94 4.0 9.0 0.00 0.00 0.00 45 1018.8
20260901203035 94 67 3.0 9.0 0.00 0.00 0.00 45 1019.1
20260901201533 95 59 4.0 9.0 0.00 0.00 0.00 43 1019.1
20260901200057 94 40 3.0 10.0 0.00 0.00 0.00 43 1019.3
20260901194546 93 139 2.0 8.0 0.00 0.00 0.00 48 1019.5
20260901193042 93 0 2.0 7.0 0.00 0.00 0.00 48 1019.6
20260901191618 94 181 3.0 8.0 0.00 0.00 0.00 47 1019.6
20260901190034 92 220 1.0 5.0 0.00 0.00 0.00 49 1019.8
20260901184536 92 24 4.0 11.0 0.00 0.00 0.00 49 1020.0
20260901183046 92 50 4.0 10.0 0.00 0.00 0.00 50 1020.0
20260901181536 92 0 1.0 9.0 0.00 0.00 0.00 49 1020.1
20260901180035 91 24 4.0 10.0 0.00 0.00 0.00 49 1020.4
20260901174537 92 44 2.0 8.0 0.00 0.00 0.00 50 1020.5
20260901173035 91 157 1.0 10.0 0.00 0.00 0.00 53 1020.7
20260901171538 90 242 4.0 9.0 0.00 0.00 0.00 52 1020.8
20260901170050 90 254 3.0 9.0 0.00 0.00 0.00 55 1020.9
20260901164540 89 215 5.0 9.0 0.00 0.00 0.00 57 1021.2